Weather History for Milwaukee Timmerman, WI

Change the Weather History Date:

Tuesday, January 29, 2013

  Actual Average Record
Temperature  
Mean Temperature 47 °F -  
Max Temperature 59 °F 28 °F 59 °F (2013)
Min Temperature 35 °F 14 °F -22 °F (1966)
Degree Days  
Heating Degree Days 18    
Moisture  
Dew Point 40 °F    
Average Humidity 96    
Maximum Humidity 100    
Minimum Humidity 87    
Precipitation  
Precipitation 0.80 in - - ()
Sea Level Pressure  
Sea Level Pressure 29.60 in    
Wind  
Wind Speed 6 mph (North)    
Max Wind Speed 14 mph    
Max Gust Speed 23 mph    
Visibility 4 miles    
Events Fog , Rain    
Averages and records for this station are not official NWS values.
T = Trace of Precipitation, MM = Missing Value Source: NWS Daily Summary

Daily Weather History Graph

Daily Weather History Graph

Search for Another Location

Airport:

Trip Planner

Search our weather history database for the weather conditions in past years. The results will help you decide how hot, cold, wet, or windy it might be!

Date:

Astronomy

Jan. 29, 2013 Rise Set
Actual Time 7:10 AM CST 5:00 PM CST
Civil Twilight 6:39 AM CST 5:31 PM CST
Nautical Twilight 6:05 AM CST 6:05 PM CST
Astronomical Twilight 5:32 AM CST 6:39 PM CST
Moon 8:03 PM CST (1/29) 8:01 AM CST (1/29)
Length of Visible Light 10h 51m
Length of Day
9h 50m
Waning Gibbous, 93% of the Moon is Illuminated
Jan 29
Waning Gibbous
Feb 3
Last Quarter
Feb 10
New
Feb 17
First Quarter
Feb 25
Full

Hourly Weather History & Observations

Time (CST) Temp. Windchill Dew Point Humidity Pressure Visibility Wind Dir Wind Speed Gust Speed Precip Events Conditions
12:15 AM 35.6 °F 29.9 °F 33.8 °F 93% 29.82 in 3.0 mi ESE 6.9 mph - 0.01 in Rain Rain
12:35 AM 35.6 °F 28.0 °F 33.8 °F 93% 29.82 in 3.0 mi SE 10.4 mph 16.1 mph 0.03 in Rain Rain
12:55 AM 35.6 °F 29.2 °F 35.6 °F 100% 29.80 in 3.0 mi SE 8.1 mph - 0.08 in Rain Rain
1:15 AM 35.6 °F 28.6 °F 35.6 °F 100% 29.78 in 1.8 mi ESE 9.2 mph - 0.17 in Rain Heavy Rain
1:35 AM 35.6 °F - 35.6 °F 100% 29.79 in 2.5 mi Calm Calm - 0.28 in Rain Heavy Rain
1:55 AM 35.6 °F 32.8 °F 35.6 °F 100% 29.77 in 10.0 mi NE 3.5 mph - 0.32 in   Overcast
2:15 AM 35.6 °F - 35.6 °F 100% 29.76 in 3.0 mi Calm Calm - 0.01 in Rain Rain
2:35 AM 35.6 °F 30.7 °F 35.6 °F 100% 29.75 in 3.0 mi NNE 5.8 mph - 0.12 in Rain Light Rain
2:55 AM 35.6 °F 31.7 °F 35.6 °F 100% 29.72 in 4.0 mi East 4.6 mph - 0.13 in   Overcast
3:15 AM 35.6 °F 32.8 °F 35.6 °F 100% 29.71 in 3.0 mi East 3.5 mph - N/A   Overcast
3:35 AM 35.6 °F 32.8 °F 35.6 °F 100% 29.69 in 1.5 mi East 3.5 mph - N/A   Overcast
3:55 AM 35.6 °F 31.7 °F 35.6 °F 100% 29.69 in 0.5 mi North 4.6 mph - N/A Fog Fog
4:15 AM 35.6 °F 32.8 °F 35.6 °F 100% 29.68 in 0.5 mi NNE 3.5 mph - N/A Fog Fog
4:35 AM 35.6 °F 30.7 °F 35.6 °F 100% 29.67 in 0.5 mi North 5.8 mph - N/A Fog Fog
4:55 AM 35.6 °F 31.7 °F 35.6 °F 100% 29.66 in 0.5 mi NNE 4.6 mph - N/A Fog Fog
5:15 AM 35.6 °F - 35.6 °F 100% 29.66 in 0.5 mi Calm Calm - N/A Fog Fog
5:35 AM 35.6 °F - 35.6 °F 100% 29.64 in 0.5 mi Calm Calm - N/A Fog Fog
5:55 AM 35.6 °F - 35.6 °F 100% 29.63 in 0.2 mi Calm Calm - N/A Fog Fog
6:50 AM 37.4 °F - 35.6 °F 93% 29.63 in 0.2 mi Calm Calm - N/A Fog Fog
7:45 AM 37.4 °F - 37.4 °F 100% 29.63 in 1.0 mi Calm Calm - N/A Rain Light Rain
8:45 AM 39.2 °F - 39.2 °F 100% 29.61 in 2.0 mi Calm Calm - N/A   Overcast
9:45 AM 48.2 °F - 48.2 °F 100% 29.59 in 2.0 mi SSE 6.9 mph - N/A   Overcast
10:45 AM 53.6 °F - 53.6 °F 100% 29.55 in 4.0 mi South 13.8 mph - N/A Rain Light Rain
11:45 AM 57.2 °F - 55.4 °F 94% 29.57 in 7.0 mi SW 13.8 mph 23.0 mph N/A   Mostly Cloudy
12:45 PM 59.0 °F - 55.4 °F 88% 29.63 in 10.0 mi SW 12.7 mph 18.4 mph N/A   Overcast
1:45 PM 59.0 °F - 55.4 °F 88% 29.51 in 7.0 mi SSW 8.1 mph - N/A   Overcast
2:45 PM 59.0 °F - 55.4 °F 88% 29.50 in 7.0 mi WSW 10.4 mph - N/A   Overcast
3:45 PM 57.2 °F - 53.6 °F 88% 29.52 in 7.0 mi WSW 9.2 mph - N/A Rain Light Rain
4:45 PM 51.8 °F - 50.0 °F 94% 29.49 in 7.0 mi WNW 5.8 mph - N/A Rain Rain
5:45 PM 50.0 °F - 48.2 °F 94% 29.49 in 0.8 mi Calm Calm - N/A Rain Rain
6:15 PM 50.0 °F - 48.2 °F 94% 29.47 in 5.0 mi North 8.1 mph - N/A Rain Rain
6:45 PM 48.2 °F - 46.4 °F 93% 29.50 in 5.0 mi NNW 12.7 mph - N/A Rain Rain
7:50 PM 42.8 °F 38.6 °F 39.2 °F 87% 29.49 in 7.0 mi North 6.9 mph - N/A Rain Rain
8:15 PM 41.0 °F 36.4 °F 39.2 °F 93% 29.49 in 7.0 mi North 6.9 mph - 0.02 in Rain Rain
8:35 PM 41.0 °F 36.4 °F 37.4 °F 87% 29.49 in 5.0 mi NNW 6.9 mph - 0.05 in Rain Rain
8:45 PM 41.0 °F 36.4 °F 39.2 °F 93% 29.49 in 7.0 mi North 6.9 mph - N/A Rain Rain
8:55 PM 41.0 °F 36.4 °F 37.4 °F 87% 29.49 in 7.0 mi North 6.9 mph - 0.07 in Rain Light Rain
9:15 PM 39.2 °F 35.0 °F 37.4 °F 93% 29.48 in 5.0 mi North 5.8 mph - 0.02 in Rain Rain
9:35 PM 39.2 °F 37.0 °F 37.4 °F 93% 29.48 in 5.0 mi North 3.5 mph - 0.04 in Rain Rain
9:55 PM 37.4 °F 33.8 °F 37.4 °F 100% 29.45 in 4.0 mi NNE 4.6 mph - 0.08 in Rain Rain
10:15 PM 37.4 °F 33.8 °F 37.4 °F 100% 29.46 in 5.0 mi North 4.6 mph - 0.02 in Rain Rain
10:35 PM 37.4 °F 32.8 °F 37.4 °F 100% 29.46 in 5.0 mi North 5.8 mph - 0.05 in Rain Light Rain
10:55 PM 37.4 °F 33.8 °F 35.6 °F 93% 29.47 in 5.0 mi NNW 4.6 mph - 0.08 in Rain Rain
11:15 PM 37.4 °F 30.8 °F 35.6 °F 93% 29.48 in 5.0 mi North 9.2 mph - 0.02 in Rain Rain
11:35 PM 37.4 °F 31.4 °F 35.6 °F 93% 29.46 in 10.0 mi North 8.1 mph - 0.04 in Rain Rain
11:55 PM 35.6 °F 28.6 °F 35.6 °F 100% 29.46 in 10.0 mi North 9.2 mph - 0.04 in Rain Rain